Flag for U.S.A. Weather past 2 weeks in Fort Collins, Colorado, U.S.A.

Now
68 °F

Passing clouds.


Feels Like: 68 °F
Forecast: 64 / 85 °F
Wind: 14 mph from East

Location: Fort Collins-Loveland Municipal Airport

Current Time: Jul 1, 2015 at 5:38:28 PM

Latest Report: Jul 1, 2015 at 4:55 PM


Visibility: 10 mi

Pressure: 30.13 "Hg

Humidity: 64%

Dew point: 55 °F

Location of Fort CollinsLocation

Historic Weather in Fort Collins — Graph

°F

Fort Collins temperature yesterday

Maximum temperature yesterday: 91 °F (at 1:15 PM)
Minimum temperature yesterday: 57 °F (at 5:55 AM)
Average temperature yesterday: 75 °F

Past Weeks' High & Low Weather Summary

 TemperatureHumidityPressure
High97 °F (Jun 19, 3:15 PM)100% (Jun 19, 6:15 AM)30.32 "Hg (Jun 19, 6:15 AM)
Low52 °F (Jun 17, 5:55 AM)14% (Jun 19, 4:35 PM)29.84 "Hg (Jun 21, 7:35 PM)
Average72 °F59%30.13 "Hg
* Reported Jun 16 3:15 PM — Jul 1 3:55 PM, Fort Collins, Weather by CustomWeather, © 2015

Note: Actual official high and low records may vary slightly from our data, if they occured in-between our weather recording intervals... More about our weather records

Advertising

Fort Collins weather history for previous 24 hours

 ConditionsComfort  
Time TempWeatherWind HumidityBarometerVisibility
3:55 PM
Wed, Jul 1
77 °FThundershowers. Passing clouds.14 mph47%30.12 "Hg10 mi
3:15 PM82 °FSunny.8 mph40%30.10 "Hg10 mi
2:55 PM86 °FSunny.7 mph35%30.09 "Hg10 mi
2:35 PM86 °FSunny.8 mph38%30.09 "Hg10 mi
2:15 PM84 °FSunny.6 mph40%30.09 "Hg10 mi
1:55 PM84 °FSunny.6 mph40%30.09 "Hg10 mi
1:35 PM86 °FSunny.6 mph33%30.11 "Hg10 mi
1:15 PM90 °FSunny.6 mph31%30.11 "Hg10 mi
12:55 PM90 °FSunny.6 mph31%30.11 "Hg10 mi
12:35 PM88 °FSunny.8 mph33%30.12 "Hg10 mi
12:15 PM88 °FSunny.6 mph33%30.12 "Hg10 mi
11:55 AM88 °FSunny.5 mph33%30.13 "Hg10 mi
11:35 AM86 °FSunny.6 mph38%30.13 "Hg10 mi
11:15 AM86 °FSunny.12 mph38%30.13 "Hg10 mi
10:55 AM84 °FSunny.6 mph40%30.14 "Hg10 mi
10:35 AM84 °FSunny.9 mph40%30.14 "Hg10 mi
10:15 AM82 °FSunny.7 mph42%30.14 "Hg10 mi
9:55 AM81 °FSunny.7 mph45%30.14 "Hg10 mi
9:35 AM79 °FSunny.7 mph48%30.15 "Hg10 mi
9:15 AM77 °FSunny.No wind54%30.15 "Hg10 mi
8:55 AM75 °FSunny.5 mph54%30.15 "Hg10 mi
8:35 AM73 °FSunny.5 mph57%30.15 "Hg10 mi
8:15 AM72 °FSunny.7 mph57%30.15 "Hg10 mi
7:55 AM72 °FSunny.3 mph61%30.15 "Hg10 mi
7:35 AM70 °FSunny.No wind69%30.15 "Hg10 mi
7:15 AM70 °FSunny.No wind64%30.14 "Hg10 mi
6:55 AM68 °FSunny.No wind69%30.14 "Hg10 mi
6:35 AM66 °FSunny.No wind73%30.14 "Hg10 mi
6:15 AM66 °FClear.No wind73%30.13 "Hg10 mi
5:55 AM64 °FClear.No wind78%30.13 "Hg10 mi
5:35 AM63 °FClear.No wind83%30.13 "Hg10 mi
5:15 AM63 °FClear.No wind77%30.12 "Hg10 mi
4:55 AM63 °FClear.No wind77%30.11 "Hg10 mi
4:35 AM64 °FClear.3 mph78%30.10 "Hg10 mi
4:15 AM64 °FClear.6 mph78%30.10 "Hg10 mi
3:55 AM64 °FClear.6 mph73%30.10 "Hg10 mi
3:35 AM66 °FClear.7 mph73%30.10 "Hg10 mi
3:15 AM66 °FClear.No wind73%30.08 "Hg10 mi
2:55 AM64 °FClear.No wind73%30.08 "Hg10 mi
2:35 AM64 °FClear.5 mph73%30.08 "Hg10 mi
2:15 AM66 °FClear.No wind68%30.09 "Hg10 mi
1:55 AM66 °FClear.7 mph68%30.10 "Hg10 mi
1:35 AM66 °FClear.9 mph68%30.11 "Hg10 mi
1:15 AM68 °FClear.No wind64%30.12 "Hg10 mi
12:55 AM66 °FClear.5 mph68%30.14 "Hg10 mi
12:35 AM66 °FClear.6 mph68%30.14 "Hg10 mi
12:15 AM66 °FClear.No wind73%30.15 "Hg10 mi
11:55 PM
Tue, Jun 30
66 °FClear.5 mph68%30.14 "Hg10 mi
11:35 PM68 °FClear.3 mph64%30.14 "Hg10 mi
11:15 PM66 °FClear.8 mph68%30.15 "Hg10 mi
10:15 PM72 °FOvercast.20 mph61%30.18 "Hg10 mi
9:55 PM72 °FPassing clouds.5 mph61%30.18 "Hg10 mi
9:35 PM70 °FPassing clouds.13 mph64%30.15 "Hg10 mi
9:15 PM72 °FBroken clouds.12 mph57%30.15 "Hg10 mi
8:55 PM73 °FThundershowers. Scattered clouds.14 mph57%30.15 "Hg10 mi
8:35 PM75 °FPassing clouds.15 mph50%30.12 "Hg10 mi
8:15 PM79 °FSunny.No wind42%30.07 "Hg10 mi
7:55 PM79 °FPassing clouds.3 mph42%30.06 "Hg10 mi
7:35 PM79 °FScattered clouds.7 mph42%30.08 "Hg10 mi
7:15 PM79 °FSunny.6 mph45%30.07 "Hg10 mi
6:55 PM81 °FSunny.13 mph39%30.05 "Hg10 mi
6:35 PM77 °FSunny.12 mph47%30.03 "Hg10 mi
6:15 PM79 °FSunny.12 mph45%30.06 "Hg10 mi
5:55 PM81 °FSunny.7 mph42%30.04 "Hg10 mi
5:35 PM81 °FSunny.7 mph42%30.05 "Hg10 mi
5:15 PM81 °FSunny.5 mph42%30.07 "Hg10 mi
Weather by CustomWeather, © 2015

See weather overviewHow to use our weather pages